Starlink deployment rail

Debris
NORAD ID: 47436 Int'l Des: 2021-006 Owner: SPXS Country: US
LEOCIRCULARRETROGRADESSO

About Starlink deployment rail

Description loading...

Live Position

Loading 3D Globe...

Upcoming Passes

Altitude History

Altitude vs Time

uPlot chart will show altitude changes over time

Two-Line Element Set

1 47436U 21006Z 25308.58424106 .00006464 00000-0 23159-3 0 9994
2 47436 97.2580 351.1566 0008762 277.8651 82.1595 15.29044378265032
Epoch: Nov 4, 2025 • Age: 8 hours

Current Status

Altitude 484.0 km
Velocity 7.62 km/s
Sub-Earth Point -21.04°S, 16.87°W
Launch Date Jan 24, 2021
Age 4.7 years
Type debris

Technical Details

Classification Component
Mass 100.00 kg
Dry Mass 100.00 kg
Total Mass 100.00 kg
Length 7.00 m
Diameter 0.02 m
Span 7.00 m
Shape Cyl
Manufacturer SPXS
Phase Status In Orbit
Owner/State SPXS/US

Large Constellations

Loading constellations...